NOAA NWS Hourly Roundups by Site

Regional Weather Roundup for Fort Worth, TX

To Select Another Site Choose from List

Select Site:  

805
ASUS44 KFWD 250615
RWRFWD
NORTH TEXAS HOURLY WEATHER ROUNDUP
NATIONAL WEATHER SERVICE FORT WORTH TX
100 AM CDT TUE SEP 25 2018

NOTE: "FAIR" INDICATES FEW OR NO CLOUDS BELOW 12,000 FEET WITH NO
SIGNIFICANT WEATHER AND/OR OBSTRUCTIONS TO VISIBILITY.

TXZ118-119-250700-
DALLAS/FORT WORTH METROPLEX

CITY           SKY/WX    TMP DP  RH WIND       PRES   REMARKS
DFW AIRPORT    FAIR      72  68  87 S7        29.89S
6HR MIN TEMP:  72; 6HR MAX TEMP:  79;

DALLAS LOVE    FAIR      75  70  84 S7        29.91R
6HR MIN TEMP:  75; 6HR MAX TEMP:  80;

FTW MEACHAM    FAIR      80  68  66 SE5       29.90S
6HR MIN TEMP:  79; 6HR MAX TEMP:  82;

DAL-EXECUTIVE  FAIR      71  68  90 S5        29.90S
6HR MIN TEMP:  71; 6HR MAX TEMP:  77;

FTW-ALLIANCE   FAIR      72  67  84 S8        29.90S
6HR MIN TEMP:  71; 6HR MAX TEMP:  79;

FTW-NAS-JRB    FAIR      73  67  81 S3        29.91R
6HR MIN TEMP:  72; 6HR MAX TEMP:  79;

FTW-SPINKS     FAIR      71  68  91 S3        29.92S
6HR MIN TEMP:  69; 6HR MAX TEMP:  78;

ARLINGTON      FAIR      71  70  96 CALM      29.91R
6HR MIN TEMP:  70; 6HR MAX TEMP:  78;

GRAND PRAIRIE  FAIR      72  72 100 SE3       29.92S
6HR MIN TEMP:  72; 6HR MAX TEMP:  79;

ADDISON        FAIR      72  69  90 SE5       29.93R
6HR MIN TEMP:  72; 6HR MAX TEMP:  79;

MESQUITE       FAIR      69  69  98 SE3       29.91S
6HR MIN TEMP:  69; 6HR MAX TEMP:  77;

LANCASTER      FAIR      69  68  96 CALM      29.92S
6HR MIN TEMP:  69; 6HR MAX TEMP:  79;

$$

TXZ091>094-102>105-117-120-121-131>134-250700-
NORTH CENTRAL TEXAS

CITY           SKY/WX    TMP DP  RH WIND       PRES   REMARKS
SHRMAN/DENISON FAIR      70  69  96 SE8       29.92S
6HR MIN TEMP:  70; 6HR MAX TEMP:  76;

GAINESVILLE    FAIR      67  67  97 SE3       29.92F FOG
6HR MIN TEMP:  67; 6HR MAX TEMP:  76;

BOWIE          FAIR      66  66  98 SE3       29.90F
6HR MIN TEMP:  66; 6HR MAX TEMP:  77;

BRIDGEPORT     FAIR      69  69 100 CALM      29.92S
6HR MIN TEMP:  69; 6HR MAX TEMP:  77;

DECATUR        FAIR      71  68  89 S10       29.91S
6HR MIN TEMP:  71; 6HR MAX TEMP:  77;

DENTON         FAIR      68  67  96 S5        29.90S
6HR MIN TEMP:  68; 6HR MAX TEMP:  77;

MCKINNEY       FAIR      71  71 100 S5        29.91S
6HR MIN TEMP:  71; 6HR MAX TEMP:  77;

BONHAM         FAIR      69  69  99 S6        29.92S
6HR MIN TEMP:  69; 6HR MAX TEMP:  75;

GREENVILLE     FAIR      72  72 100 CALM      29.92S FOG
ROCKWALL       FAIR      72  72 100 S3        29.92S
6HR MIN TEMP:  72; 6HR MAX TEMP:  77;

TERRELL        FAIR      72  69  90 SE3       29.92S
6HR MIN TEMP:  72; 6HR MAX TEMP:  78;

WAXAHACHIE     FAIR      70  70 100 SE3       29.93R
6HR MIN TEMP:  70; 6HR MAX TEMP:  78;

CLEBURNE       FAIR      70  70 100 S6        29.93S
GRANBURY       FAIR      73  69  88 SE5       29.92S
6HR MIN TEMP:  73; 6HR MAX TEMP:  81;

$$

TXZ083>090-098>101-113>116-127>130-139>142-154-155-250700-
WESTERN NORTH TEXAS

CITY           SKY/WX    TMP DP  RH WIND       PRES   REMARKS
WICHITA FALLS  FAIR      67  65  93 S8        29.87R
6HR MIN TEMP:  67; 6HR MAX TEMP:  78;

WF-KICKAPOO    FAIR      69  67  93 SE12      29.90S
6HR MIN TEMP:  69; 6HR MAX TEMP:  80;

VERNON         FAIR      70  66  88 S10       29.87F
6HR MIN TEMP:  70; 6HR MAX TEMP:  83;

ABILENE        FAIR      68  65  90 SE10      29.91S
6HR MIN TEMP:  67; 6HR MAX TEMP:  79;

ABILENE-DYESS  CLEAR     70  64  83 S12       29.93S
GRAHAM         FAIR      69  68  98 CALM      29.88S
6HR MIN TEMP:  69; 6HR MAX TEMP:  78;

BRECKENRIDGE   FAIR      72  67  84 S12       29.90S
6HR MIN TEMP:  71; 6HR MAX TEMP:  82;

CISCO          FAIR      66  64  94 SE7       29.92F
EASTLAND       FAIR      67  65  94 SE3       29.92S
6HR MIN TEMP:  63; 6HR MAX TEMP:  78;

RANGER         FAIR      70  67  91 S6        29.92S
6HR MIN TEMP:  66; 6HR MAX TEMP:  77;

MINERAL WELLS  FAIR      69  67  93 SE8       29.89S
6HR MIN TEMP:  69; 6HR MAX TEMP:  78;

STEPHENVILLE   FAIR      69  66  90 CALM      29.95S
6HR MIN TEMP:  69; 6HR MAX TEMP:  80;

COMANCHE       FAIR      69  69 100 MISG      29.92F
6HR MIN TEMP:  69; 6HR MAX TEMP:  80;

BROWNWOOD      FAIR      70  68  94 S5        29.92S
COLEMAN        FAIR      69  66  90 SE3       29.93S
6HR MIN TEMP:  69; 6HR MAX TEMP:  81;

BRADY          FAIR      70  66  88 SE7       29.94S
$$

TXZ143>147-156>162-174-175-250700-
CENTRAL TEXAS

CITY           SKY/WX    TMP DP  RH WIND       PRES   REMARKS
WACO           MOCLDY    74  69  85 SE9       29.91S
6HR MIN TEMP:  71; 6HR MAX TEMP:  80;

WACO-MCGREGOR  FAIR      72  70  93 S7        29.92S
6HR MIN TEMP:  71; 6HR MAX TEMP:  80;

HILLSBORO      FAIR      72  71  97 SE7       29.91S
6HR MIN TEMP:  72; 6HR MAX TEMP:  79;

MEXIA          FAIR      70  70  98 SE3       29.92S
6HR MIN TEMP:  70; 6HR MAX TEMP:  77;

HEARNE         CLOUDY    74  72  91 SE5       29.93S
6HR MIN TEMP:  73; 6HR MAX TEMP:  82;

CAMERON        CLOUDY    74  71  88 S3        29.91S
6HR MIN TEMP:  74; 6HR MAX TEMP:  80;

TEMPLE         FAIR      74  70  87 SE9       29.92S
6HR MIN TEMP:  72; 6HR MAX TEMP:  80;

KILLEEN        NOT AVBL
KILLEEN-SKYLRK FAIR     N/A N/A N/A SE8       29.92F
GATESVILLE     FAIR      70  70 100 CALM      29.94S
LAMPASAS       MOCLDY    70  68  92 CALM      29.92S
6HR MIN TEMP:  70; 6HR MAX TEMP:  80;

$$

TXZ095>097-106>112-122>126-135>138-148>153-164>167-250700-
EAST TEXAS

CITY           SKY/WX    TMP DP  RH WIND       PRES   REMARKS
PARIS          FAIR      69  69 100 S5        29.93R
6HR MIN TEMP:  69; 6HR MAX TEMP:  75;

SULPHUR SPRNGS FAIR      73  71  95 S6        29.94S
6HR MIN TEMP:  73; 6HR MAX TEMP:  78;

MOUNT PLEASANT FAIR      70  68  95 CALM      29.94S
6HR MIN TEMP:  70; 6HR MAX TEMP:  76;

GILMER         FAIR      70  69  96 CALM      29.93S
6HR MIN TEMP:  69; 6HR MAX TEMP:  76;

MINEOLA        FAIR      70  68  94 CALM      29.92S FOG
TYLER          FAIR      72  70  93 SE3       29.92S
6HR MIN TEMP:  72; 6HR MAX TEMP:  78;

LONGVIEW       MOCLDY    72  72 100 CALM      29.92S
6HR MIN TEMP:  71; 6HR MAX TEMP:  78;

MARSHALL       FAIR      70  68  94 CALM      29.95S
6HR MIN TEMP:  70; 6HR MAX TEMP:  75;

ATHENS         FAIR      68  68 100 CALM      29.91S
PALESTINE      FAIR      71  69  93 CALM      29.93F
JACKSONVILLE   FAIR      71  69  94 S5        29.95S
HENDERSON      CLOUDY    70  70  98 CALM      29.94S
6HR MIN TEMP:  69; 6HR MAX TEMP:  76;

CENTER         FAIR      70  69  95 CALM      29.94S
6HR MIN TEMP:  70; 6HR MAX TEMP:  78;

NACOGDOCHES      N/A     74  71  91 SE5       29.94S
6HR MIN TEMP:  72; 6HR MAX TEMP:  80;

LUFKIN         MOCLDY    75  72  90 S5        29.93S
6HR MIN TEMP:  74; 6HR MAX TEMP:  80;

$$

SUPPLEMENTAL OBSERVATIONS (NWS FORT WORTH AREA)

CITY           SKY/WX    TMP DP  RH WIND       PRES   REMARKS
DENISON DAM      N/A     72  70  94 S3          N/A
CADDO GRASSLND   N/A     70  64  83 S3          N/A
LBJ GRASSLAND    N/A     70  64  83 SE7         N/A
POSSUM KINGDOM   N/A     72  68  88 S7          N/A


 

View Past Reports for Fort Worth, TX.

Products Courtesy of NOAA-NWS
NWS Information Parsing Script by Ken True at Saratoga Weather - Script by SE Lincoln Weather.